This is the latest recevied weather packets stored in our database for station/object KQ4NAL. If no packets are shown the sender has not sent any weather packets the latest 10 day(s).
| Time | Temp. | Humidity | Pressure | Rain* | Wind** | Luminosity | Snow |
|---|---|---|---|---|---|---|---|
| 1778072488 | 7.78° C | 99% | 1012.3 hPa | 0 mm | - | 268 W/m² | - |
| 1778072186 | 7.22° C | 99% | 1012.7 hPa | 0 mm | - | 201 W/m² | - |
| 1778071883 | 7.22° C | 99% | 1012.8 hPa | 0 mm | - | 154 W/m² | - |
| 1778071581 | 7.22° C | 99% | 1012.7 hPa | 0 mm | - | 168 W/m² | - |
| 1778071279 | 7.78° C | 99% | 1012.4 hPa | 0 mm | - | 144 W/m² | - |
| 1778070976 | 7.22° C | 99% | 1012.4 hPa | 0 mm | - | 141 W/m² | - |
| 1778070675 | 7.22° C | 99% | 1012.7 hPa | 0 mm | - | 142 W/m² | - |
| 1778070371 | 7.22° C | 99% | 1012.3 hPa | 0 mm | - | 129 W/m² | - |
| 1778070069 | 6.67° C | 99% | 1012.3 hPa | 0 mm | - | 135 W/m² | - |
| 1778069766 | 6.67° C | 99% | 1012.5 hPa | 0 mm | - | 127 W/m² | - |
| 1778069462 | 6.67° C | 99% | 1012.2 hPa | 0 mm | - | 107 W/m² | - |
| 1778069161 | 6.67° C | 99% | 1012 hPa | 0 mm | - | 89 W/m² | - |
| 1778068857 | 6.67° C | 99% | 1012 hPa | 0 mm | - | 81 W/m² | - |
| 1778068556 | 6.67° C | 99% | 1012 hPa | 0 mm | - | 83 W/m² | - |
| 1778068254 | 6.67° C | 99% | 1011.9 hPa | 0 mm | - | 69 W/m² | - |
| 1778067951 | 6.67° C | 99% | 1012.1 hPa | 0 mm | - | 56 W/m² | - |
| 1778067649 | 6.67° C | 99% | 1012.1 hPa | 0 mm | - | 37 W/m² | - |
| 1778067347 | 6.67° C | 99% | 1011.5 hPa | 0 mm | - | 32 W/m² | - |
| 1778067044 | 6.67° C | 99% | 1011.6 hPa | 0 mm | - | 39 W/m² | - |
| 1778066740 | 6.67° C | 99% | 1011.2 hPa | 0 mm | - | 45 W/m² | - |
| 1778066438 | 6.67° C | 99% | 1011.4 hPa | 0 mm | - | 24 W/m² | - |
| 1778066136 | 6.67° C | 99% | 1011.2 hPa | 0 mm | - | 21 W/m² | - |
| 1778065832 | 6.67° C | 99% | 1011 hPa | 0 mm | - | 16 W/m² | - |
| 1778065530 | 6.67° C | 99% | 1010.9 hPa | 0 mm | - | 12 W/m² | - |
| 1778065227 | 6.67° C | 99% | 1011.1 hPa | 0 mm | - | 9 W/m² | - |
* Rain latest hour (hover to see other rain measurements)
** Current wind speed in m/s (hover to see current wind gust speed)